Weather History for Bellefontaine, OH

Change the Weather History Date:

Sunday, August 18, 2013

  Actual Average (KDAY) Record (KDAY)
Temperature  
Mean Temperature 66 °F 73 °F  
Max Temperature 78 °F 83 °F 99 °F (1988)
Min Temperature 53 °F 63 °F 50 °F (1981)
Degree Days  
Heating Degree Days 0 0  
Month to date heating degree days 0  
Since 1 June heating degree days 22  
Since 1 July heating degree days 0  
Cooling Degree Days 0 8  
Month to date cooling degree days 150  
Year to date cooling degree days 689  
Since 1 June cooling degree days 619  
Growing Degree Days 16 (Base 50)    
Moisture  
Dew Point 57 °F    
Average Humidity 75    
Maximum Humidity 100    
Minimum Humidity 44    
Precipitation  
Precipitation 0.00 in 0.11 in 1.36 in (1941)
Month to date precipitation 1.71  
Year to date precipitation 27.03  
Snow  
Snow 0.00 in 0.00 in 0.00 in ()
Month to date snowfall 0.0  
Since 1 June snowfall 0.0  
Since 1 July snowfall 0.0  
Snow Depth -    
Sea Level Pressure  
Sea Level Pressure 30.16 in    
Wind  
Wind Speed 3 mph (East)    
Max Wind Speed 9 mph    
Max Gust Speed -    
Visibility 10 miles    
Events      
T = Trace of Precipitation, MM = Missing Value Source: NWS Daily Summary

Daily Weather History Graph

Daily Weather History Graph

Search for Another Location

Airport:

Trip Planner

Search our weather history database for the weather conditions in past years. The results will help you decide how hot, cold, wet, or windy it might be!

Date:

Astronomy

Aug. 18, 2013 Rise Set
Actual Time 6:49 AM EDT 8:28 PM EDT
Civil Twilight 6:20 AM EDT 8:56 PM EDT
Nautical Twilight 5:45 AM EDT 9:31 PM EDT
Astronomical Twilight 5:08 AM EDT 10:08 PM EDT
Moon 6:33 PM EDT (8/18) 3:57 AM EDT (8/18)
Length of Visible Light 14h 36m
Length of Day
13h 38m
Waxing Gibbous, 92% of the Moon is Illuminated
Aug 18
Waxing Gibbous
Aug 20
Full
Aug 28
Last Quarter
Sep 5
New
Sep 12
First Quarter

Hourly Weather History & Observations

Time (EDT) Temp. Dew Point Humidity Pressure Visibility Wind Dir Wind Speed Gust Speed Precip Events Conditions
12:10 AM 66.2 °F 55.4 °F 68% 30.17 in 10.0 mi East 4.6 mph - 0.00 in   Clear
12:35 AM 64.4 °F 55.4 °F 73% 30.17 in 10.0 mi Calm Calm - 0.00 in   Clear
12:55 AM 64.4 °F 55.4 °F 73% 30.17 in 10.0 mi Calm Calm - 0.00 in   Partly Cloudy
1:10 AM 64.4 °F 55.4 °F 73% 30.18 in 10.0 mi SE 4.6 mph - 0.00 in   Scattered Clouds
1:35 AM 62.6 °F 57.2 °F 82% 30.18 in 10.0 mi SE 4.6 mph - 0.00 in   Mostly Cloudy
1:55 AM 60.8 °F 57.2 °F 88% 30.18 in 10.0 mi SE 4.6 mph - 0.00 in   Scattered Clouds
2:10 AM 60.8 °F 57.2 °F 88% 30.17 in 10.0 mi SE 3.5 mph - 0.00 in   Mostly Cloudy
2:35 AM 62.6 °F 57.2 °F 82% 30.17 in 10.0 mi East 3.5 mph - 0.00 in   Partly Cloudy
2:55 AM 60.8 °F 57.2 °F 88% 30.17 in 10.0 mi Calm Calm - 0.00 in   Clear
3:10 AM 59.0 °F 57.2 °F 94% 30.16 in 10.0 mi Calm Calm - 0.00 in   Clear
3:35 AM 57.2 °F 57.2 °F 100% 30.16 in 10.0 mi Calm Calm - 0.00 in   Clear
3:55 AM 57.2 °F 57.2 °F 100% 30.16 in 10.0 mi Calm Calm - 0.00 in   Clear
4:05 AM 57.2 °F 57.2 °F 100% 30.16 in 10.0 mi Calm Calm - 0.00 in   Clear
4:30 AM 55.4 °F 55.4 °F 100% 30.16 in 10.0 mi Calm Calm - 0.00 in   Clear
4:55 AM 55.4 °F 55.4 °F 100% 30.15 in 10.0 mi Calm Calm - 0.00 in   Clear
5:10 AM 53.6 °F 53.6 °F 100% 30.16 in 10.0 mi Calm Calm - 0.00 in   Clear
5:30 AM 53.6 °F 53.6 °F 100% 30.16 in 10.0 mi Calm Calm - 0.00 in   Clear
5:55 AM 53.6 °F 53.6 °F 100% 30.16 in 10.0 mi Calm Calm - 0.00 in   Clear
6:10 AM 53.6 °F 53.6 °F 100% 30.16 in 10.0 mi Calm Calm - 0.00 in   Clear
6:30 AM 55.4 °F 55.4 °F 100% 30.16 in 10.0 mi Calm Calm - 0.00 in   Clear
6:55 AM 53.6 °F 53.6 °F 100% 30.17 in 10.0 mi Calm Calm - 0.00 in   Clear
7:10 AM 53.6 °F 53.6 °F 100% 30.17 in 9.0 mi Calm Calm - 0.00 in   Clear
7:30 AM 53.6 °F 53.6 °F 100% 30.18 in 10.0 mi Calm Calm - 0.00 in   Clear
7:55 AM 53.6 °F 53.6 °F 100% 30.19 in 10.0 mi North 3.5 mph - 0.00 in   Clear
8:10 AM 53.6 °F 53.6 °F 100% 30.19 in 10.0 mi Calm Calm - 0.00 in   Clear
8:35 AM 57.2 °F 57.2 °F 100% 30.20 in 10.0 mi Calm Calm - 0.00 in   Clear
8:50 AM 60.8 °F 59.0 °F 94% 30.20 in 10.0 mi Calm Calm - 0.00 in   Clear
9:15 AM 64.4 °F 60.8 °F 88% 30.20 in 10.0 mi Calm Calm - 0.00 in   Clear
9:35 AM 68.0 °F 57.2 °F 68% 30.20 in 10.0 mi NE 4.6 mph - 0.00 in   Clear
9:50 AM 69.8 °F 57.2 °F 64% 30.20 in 10.0 mi East 4.6 mph - 0.00 in   Clear
10:15 AM 69.8 °F 57.2 °F 64% 30.20 in 10.0 mi ENE 5.8 mph - 0.00 in   Clear
10:35 AM 71.6 °F 57.2 °F 60% 30.20 in 10.0 mi NNE 5.8 mph - 0.00 in   Clear
10:50 AM 71.6 °F 55.4 °F 57% 30.20 in 10.0 mi NE 9.2 mph - 0.00 in   Clear
11:15 AM 73.4 °F 55.4 °F 53% 30.20 in 10.0 mi NNE 8.1 mph - 0.00 in   Clear
11:35 AM 73.4 °F 55.4 °F 53% 30.20 in 10.0 mi NNE 9.2 mph - 0.00 in   Clear
11:50 AM 73.4 °F 57.2 °F 57% 30.20 in 10.0 mi NNE 4.6 mph - 0.00 in   Clear
12:15 PM 73.4 °F 57.2 °F 57% 30.20 in 10.0 mi NE 6.9 mph - 0.00 in   Clear
12:30 PM 73.4 °F 57.2 °F 57% 30.19 in 10.0 mi NE 9.2 mph - 0.00 in   Scattered Clouds
12:55 PM 73.4 °F 57.2 °F 57% 30.18 in 10.0 mi ENE 9.2 mph - 0.00 in   Scattered Clouds
1:10 PM 75.2 °F 57.2 °F 53% 30.18 in 10.0 mi ENE 4.6 mph - 0.00 in   Scattered Clouds
1:30 PM 75.2 °F 57.2 °F 53% 30.17 in 10.0 mi NNE 6.9 mph - 0.00 in   Mostly Cloudy
1:50 PM 73.4 °F 57.2 °F 57% 30.17 in 10.0 mi NE 3.5 mph - 0.00 in   Mostly Cloudy
2:10 PM 73.4 °F 57.2 °F 57% 30.17 in 10.0 mi East 3.5 mph - 0.00 in   Overcast
2:35 PM 77.0 °F 57.2 °F 50% 30.16 in 10.0 mi ENE 5.8 mph - 0.00 in   Scattered Clouds
2:50 PM 77.0 °F 57.2 °F 50% 30.16 in 10.0 mi ENE 5.8 mph - 0.00 in   Clear
3:10 PM 75.2 °F 57.2 °F 53% 30.15 in 10.0 mi East 3.5 mph - 0.00 in   Mostly Cloudy
3:35 PM 77.0 °F 55.4 °F 47% 30.15 in 10.0 mi Calm Calm - 0.00 in   Scattered Clouds
3:50 PM 77.0 °F 57.2 °F 50% 30.14 in 10.0 mi Calm Calm - 0.00 in   Scattered Clouds
4:10 PM 75.2 °F 57.2 °F 53% 30.13 in 10.0 mi Calm Calm - 0.00 in   Mostly Cloudy
4:35 PM 78.8 °F 55.4 °F 44% 30.13 in 10.0 mi East 4.6 mph - 0.00 in   Partly Cloudy
4:50 PM 78.8 °F 55.4 °F 44% 30.13 in 10.0 mi SSE 3.5 mph - 0.00 in   Mostly Cloudy
5:10 PM 78.8 °F 57.2 °F 47% 30.13 in 10.0 mi Calm Calm - 0.00 in   Mostly Cloudy
5:35 PM 78.8 °F 57.2 °F 47% 30.12 in 10.0 mi Calm Calm - 0.00 in   Partly Cloudy
5:50 PM 78.8 °F 55.4 °F 44% 30.12 in 10.0 mi Calm Calm - 0.00 in   Clear
6:10 PM 78.8 °F 55.4 °F 44% 30.12 in 10.0 mi SW 3.5 mph - 0.00 in   Partly Cloudy
6:35 PM 78.8 °F 55.4 °F 44% 30.12 in 10.0 mi Calm Calm - 0.00 in   Partly Cloudy
6:50 PM 78.8 °F 55.4 °F 44% 30.11 in 10.0 mi Calm Calm - 0.00 in   Partly Cloudy
7:10 PM 77.0 °F 55.4 °F 47% 30.11 in 10.0 mi Calm Calm - 0.00 in   Clear
7:35 PM 75.2 °F 59.0 °F 57% 30.12 in 10.0 mi Calm Calm - 0.00 in   Clear
7:50 PM 73.4 °F 60.8 °F 65% 30.11 in 10.0 mi Calm Calm - 0.00 in   Clear
8:15 PM 71.6 °F 60.8 °F 69% 30.11 in 10.0 mi Calm Calm - 0.00 in   Clear
8:35 PM 68.0 °F 60.8 °F 78% 30.12 in 10.0 mi Calm Calm - 0.00 in   Clear
8:50 PM 66.2 °F 60.8 °F 83% 30.12 in 10.0 mi Calm Calm - 0.00 in   Clear
9:15 PM 64.4 °F 60.8 °F 88% 30.13 in 10.0 mi Calm Calm - 0.00 in   Partly Cloudy
9:35 PM 68.0 °F 62.6 °F 83% 30.14 in 10.0 mi ESE 3.5 mph - 0.00 in   Mostly Cloudy
9:50 PM 68.0 °F 64.4 °F 88% 30.14 in 10.0 mi SSE 6.9 mph - 0.00 in   Overcast
10:10 PM 66.2 °F 64.4 °F 94% 30.15 in 10.0 mi SE 3.5 mph - 0.00 in   Mostly Cloudy
10:35 PM 66.2 °F 64.4 °F 94% 30.15 in 10.0 mi SE 4.6 mph - 0.00 in   Partly Cloudy
10:50 PM 64.4 °F 64.4 °F 100% 30.15 in 10.0 mi ESE 4.6 mph - 0.00 in   Clear
11:10 PM 64.4 °F 64.4 °F 100% 30.15 in 10.0 mi SE 4.6 mph - 0.00 in   Clear
11:35 PM 64.4 °F 64.4 °F 100% 30.14 in 10.0 mi SE 4.6 mph - 0.00 in   Clear
11:50 PM 64.4 °F 64.4 °F 100% 30.14 in 10.0 mi SE 3.5 mph - 0.00 in   Clear